[Iaude] MPEC T115: 2023 TS3 [a=1.24,e=0.89,i=11.4,H=20.2]
    mpec at marsden.cfa.harvard.edu 
    mpec at marsden.cfa.harvard.edu
       
    Mon Oct  9 02:09:45 EDT 2023
    
    
  
M.P.E.C. 2023-T115                              Issued 2023 October 9, 06:07 UT
     The Minor Planet Electronic Circulars contain information on unusual
         minor planets, routine data on comets and natural satellites,
         and occasional editorial announcements.  They are published
    on behalf of Division F of the International Astronomical Union by the
          Minor Planet Center, Smithsonian Astrophysical Observatory,
                          Cambridge, MA 02138, U.S.A.
			  
             Prepared using the Tamkin Foundation Computer Network
                              MPC at CFA.HARVARD.EDU
            URL https://www.minorplanetcenter.net/    ISSN 1523-6714
                                    2023 TS3                                    
Observations:
     K23T03S 1C2023 10 03.46654 03 48 16.87 -15 27 05.2          20.9 GVET115703
     K23T03S 1C2023 10 03.47136 03 48 13.55 -15 27 16.2          19.2 GVET115703
     K23T03S 1C2023 10 03.47617 03 48 10.32 -15 27 29.2          19.4 GVET115703
     K23T03S  C2023 10 07.53488903 05 33.623-17 50 16.39         19.47GVET115F51
     K23T03S  C2023 10 07.55755103 05 20.043-17 50 53.25         19.47GVET115F51
     K23T03S  C2023 10 07.56889903 05 13.221-17 51 11.70         19.25GVET115F51
     K23T03S*KC2023 10 08.32253 02 57 56.02 -18 10 20.8          18.6 GVET115W94
     K23T03S KC2023 10 08.32875 02 57 52.39 -18 10 30.1          19.2 GVET115W94
     K23T03S KC2023 10 08.33494 02 57 48.82 -18 10 38.9          19.4 GVET115W94
     K23T03S KC2023 10 08.36919 02 57 28.94 -18 11 28.1          18.7 GVET115X10
     K23T03S KC2023 10 08.37487 02 57 25.64 -18 11 36.3          19.4 GVET115X10
     K23T03S KC2023 10 08.38050 02 57 22.38 -18 11 44.2          20.2 GVET115X10
     K23T03S KC2023 10 08.44988802 56 43.393-18 13 48.32         19.52GVET115I52
     K23T03S KC2023 10 08.45140102 56 42.518-18 13 50.34         19.28GVET115I52
     K23T03S KC2023 10 08.45293102 56 41.629-18 13 52.61         19.71GVET115I52
     K23T03S KC2023 10 08.45446002 56 40.729-18 13 54.80         19.68GVET115I52
     K23T03S KC2023 10 08.54393802 55 51.08 -18 15 31.8          19.3 GVET115474
     K23T03S KC2023 10 08.54490002 55 50.57 -18 15 33.2          19.4 GVET115474
     K23T03S KC2023 10 08.54586402 55 49.96 -18 15 34.5          18.7 GVET115474
     K23T03S KC2023 10 08.54682702 55 49.43 -18 15 35.8          19.2 GVET115474
     K23T03S KC2023 10 08.54778902 55 48.88 -18 15 37.3          19.3 GVET115474
     K23T03S KC2023 10 08.56869 02 55 37.38 -18 16 10.3          19.3 VqET115E23
     K23T03S KC2023 10 08.58258 02 55 29.39 -18 16 30.1          19.5 VqET115E23
     K23T03S KC2023 10 08.59647 02 55 21.44 -18 16 50.2          19.6 VqET115E23
     K23T03S hC2023 10 08.93612802 52 10.99 -18 25 05.8          19.4 GVET115L01
     K23T03S hC2023 10 08.93865402 52 09.59 -18 25 09.4          19.2 GVET115L01
     K23T03S hC2023 10 08.94117902 52 08.19 -18 25 12.9          19.5 GVET115L01
     K23T03S KB2023 10 09.00306502 51 33.58 -18 26 35.7          19.5 GVET115I93
     K23T03S KB2023 10 09.01211302 51 28.48 -18 26 47.6          19.5 GVET115I93
     K23T03S KB2023 10 09.02100402 51 23.49 -18 26 59.3          19.2 GVET115I93
Observer details:
474 Mount John Observatory, Lake Tekapo.  Observers A. C. Gilmore, P. M.
    Kilmartin.  Measurer P. M. Kilmartin.  0.6-m f/6.2 reflector + CCD.
703 Catalina Sky Survey.  Observer D. Rankin.  Measurers B. Gray, D. Rankin,
    F. C. Shelly.  0.68-m Schmidt + 10K CCD.
E23 Arcadia.  Observer A. Hidas.  0.35-m f/1.9 reflector + CCD.
F51 Pan-STARRS 1, Haleakala.  Observers J. Bulger, K. Chambers, T. Lowe, P.
    Minguez, A. Schultz, I. Smith.  Measurers S. Chastel, J. Fairlamb, M.
    Huber, Y. Ramanjooloo, R. Wainscoat, R. Weryk.  1.8-m Ritchey-Chretien +
    CCD.
I52 Steward Observatory, Mt. Lemmon Station.  Observer J. B. Fazekas.
    Measurers E. C. Beshore, D. Fay, J. B. Fazekas, D. C. Fuls, A. R. Gibbs,
    A. D. Grauer, H. Groeller, J. K. Hogan, R. A. Kowalski, S. M. Larson, G.
    J. Leonard, D. Rankin, R. L. Seaman, F. C. Shelly, K. W. Wierzchos.  1.0-m
    prime focus + CCD.
I93 St Pardon de Conques.  Observer F. Losse.  0.40-m f/3.7 reflector + CMO.
L01 Visnjan Observatory, Tican.  Observer K. Korlevic.  1.0-m f/2.9 reflector
    + CCD.
W94 MAP, San Pedro de Atacama.  Observers A. Maury, G. Attard.  Measurers D.
    Parrott, F. Signoret, J.-M. Mari.  0.28-m f/2.2 Schmidt astrograph + CCD.
X10 OVTLN, San Pedro de Atacama.  Observers A. Maury, G. Attard, F. Signoret.
    Measurers A. Maury, G. Attard, D. Parrott, J.-M. Mari.  0.50-m f/4
    reflector + CCD.
Orbital elements:
2023 TS3                                                 Earth MOID = 0.1257 AU
Epoch 2023 Sept. 13.0 TT = JDT 2460200.5                Veres                   
M  23.29776              (2000.0)            P               Q                  
n   0.71786462     Peri.   73.77666     -0.68502743     +0.72272210             
a   1.2353054      Node   152.29188     -0.72075375     -0.65400769             
e   0.8872462      Incl.   11.37521     -0.10607288     -0.22348760             
P   1.37           H   20.21          G   0.15           U   9                  
Residuals in seconds of arc
231003 703  0.5+  0.6-    231008 X10  0.2-  0.1-    231008 474  0.0   0.1-
231003 703  0.4-  0.9+    231008 X10  0.2-  0.1+    231008 E23  0.3-  0.3+
231003 703  0.1-  0.3+    231008 I52  0.2+  0.1-    231008 E23  0.5-  0.4+
231007 F51  0.1-  0.2-    231008 I52  0.2+  0.0     231008 E23  0.1-  0.2+
231007 F51  0.2+  0.2-    231008 I52  0.1+  0.1-    231008 L01  0.4-  0.6+
231007 F51  0.1-  0.2-    231008 I52  0.1-  0.1-    231008 L01  0.1-  0.4+
231008 W94  0.1+  0.1+    231008 474  0.2-  0.1-    231008 L01  0.3+  0.3+
231008 W94  0.2-  0.2-    231008 474  0.4+  0.1-    231009 I93  0.0   0.2+
231008 W94  0.2+  0.0     231008 474  0.4-  0.0     231009 I93  0.1-  0.4+
231008 X10  0.0   0.0     231008 474  0.0   0.0     231009 I93  0.1+  0.5+
Ephemeris:
2023 TS3                 a,e,i = 1.24, 0.89, 11                  q = 0.1393
Date    TT    R. A. (2000) Decl.     Delta      r    Elong.  Phase     V
2023 09 09    07 49 49.9 +07 10 31   0.3754  0.8129    49.1   110.4    21.8
...
2023 09 24    05 36 31.2 -06 21 39   0.2865  1.0727    96.2    68.4    20.1
...
2023 10 02    04 04 47.2 -14 19 07   0.2956  1.1919   124.0    44.1    19.6
...
2023 10 08    03 01 02.6 -18 02 17   0.3338  1.2744   140.4    30.0    19.7
2023 10 09    02 51 35.2 -18 26 09   0.3425  1.2877   142.4    28.2    19.7
2023 10 10    02 42 31.3 -18 46 34   0.3518  1.3007   144.3    26.6    19.7
...
2023 10 16    01 56 31.1 -19 49 59   0.4185  1.3764   150.3    21.0    20.0
...
2023 10 24    01 15 01.3 -19 36 03   0.5301  1.4703   147.7    21.2    20.7
...
2023 11 08    00 36 18.3 -17 25 47   0.7825  1.6275   132.8    26.5    21.9
M. P. C. Staff               (C) Copyright 2023 MPC           M.P.E.C. 2023-T115
    
    
More information about the Iaude
mailing list